JO-97
1 43803U 18099AX  24330.13084225  .00019577  00000-0  10952-2 0  9990
2 43803  97.4987  25.6359 0009707 107.3297 252.8997 15.13458296326980
Suomi 100
1 43804U 18099AY  24330.15992228  .00020650  00000-0  11991-2 0  9992
2 43804  97.5064  25.3617 0015327 107.9615 252.3288 15.12047364326951
ISAT
1 43879U 18111D   24330.55311066  .00029739  00000-0  14343-2 0  9999
2 43879  97.6059 236.1474 0011852 149.9880 210.2036 15.18588207323830
UWE-4
1 43880U 18111E   24330.28738277  .00028358  00000-0  14457-2 0  9990
2 43880  97.5991 235.4081 0014629 163.9624 196.2074 15.16625992323789
Sparrow
1 43881U 18111F   24330.26366225  .00033378  00000-0  15773-2 0  9999
2 43881  97.6168 238.1101 0007501 186.3771 173.7369 15.19308811323860
Prox-1
1 44339U 19036A   24330.24887858  .00022827  00000-0  34381-2 0  9996
2 44339  23.9980 264.8435 0007447   1.9139 358.1384 14.72930121288968
SONATE
1 44400U 19038Q   24329.57688313  .00051933  00000-0  98550-3 0  9995
2 44400  97.7135 332.3119 0009217 246.6303 113.3977 15.48099456298765
Taurus 1
1 44530U 19059C   24330.70115867  .00017774  00000-0  36640-2 0  9994
2 44530  98.5884  95.8326 0010542 276.0846  83.9152 14.60479436275295
Duchifat 3
1 44854U 19089C   24330.69453636  .00042308  00000-0  15480-2 0  9993
2 44854  36.9503 141.6784 0011342  10.0196 350.0779 15.27067860272804
TO-108
1 44881U 19093C   24330.71056253  .00002945  00000-0  35327-3 0  9991
2 44881  97.8152  44.3514 0014745 149.5963 210.6109 14.84724128267003
FloripaSat 1
1 44885U 19093G   24330.71194771  .00014274  00000-0  13313-2 0  9991
2 44885  97.8313  52.3797 0012333 137.0480 223.1705 14.94271909267450
RS-44
1 44909U 19096E   24330.47760964  .00000035  00000-0  93186-4 0  9995
2 44909  82.5227 357.5992 0218070  34.3819 327.1175 12.79736248229604
UPMSat 2
1 46276U 20061E   24330.25761553  .00050002  00000-0  10512-2 0  9998
2 46276  97.2766  35.5230 0000102 209.3982 150.7261 15.45165785234949
AmicalSat
1 46287U 20061R   24330.16580684  .00246688  00000-0  21048-2 0  9997
2 46287  97.3205  39.9122 0002067 299.3370  60.7685 15.68759805234475
SALSAT
1 46495U 20068K   24330.42183472  .00014833  00000-0  73791-3 0  9996
2 46495  97.8378 294.4325 0014786 115.0508 245.2261 15.17629799228726
IDEASSat
1 47458U 21006AX  24330.61911240  .00607545  14612-3  19922-2 0  9992
2 47458  97.2973  34.0827 0004244 299.8722  60.2129 15.90542965213703
CubeSX-Sirius-HSE
1 47951U 21022V   24330.80791672  .00065921  00000-0  16129-2 0  9999
2 47951  97.4404 229.9896 0007221 296.3244  63.7260 15.40526405203318
CubeSX-HSE
1 47952U 21022W   24330.80654366  .00068207  00000-0  16481-2 0  9999
2 47952  97.4401 230.1271 0007093 293.4592  66.5908 15.40896716203324
KSU-Cubesat
1 47954U 21022Y   24330.69288539  .00099278  00000-0  18160-2 0  9991
2 47954  97.4403 232.5065 0004166 285.7268  74.3522 15.48994238203186
GRBAlpha
1 47959U 21022AD  24330.69957694  .00065491  00000-0  15849-2 0  9992
2 47959  97.4402 230.1860 0007070 293.6237  66.4267 15.40862407202134
Orbicraft-Zorkiy
1 47960U 21022AE  24330.69787312  .00087052  00000-0  17674-2 0  9997
2 47960  97.4445 232.3118 0005209 292.7081  67.3617 15.46015971202931
TUBIN
1 48900U 21059X   24330.69450408  .00043711  00000-0  10593-2 0  9992
2 48900  97.6612 121.3702 0005372 233.9938 126.0810 15.40936185189697
LEDSAT
1 49069U 21073D   24330.63703434  .00047355  00000-0  13181-2 0  9993
2 49069  97.4186  41.6618 0015608  71.2205 289.0731 15.36547179181130
CUTE
1 49263U 21088D   24330.15860722  .00064122  00000-0  20230-2 0  9990
2 49263  97.4775  36.1548 0010572 231.5072 128.5222 15.32574188174173
TeikyoSat 4
1 49396U 21102B   24330.66377210  .00005678  00000-0  39233-3 0  9990
2 49396  97.4400  10.0406 0014368  85.4588 274.8280 15.06037099167047
Z-Sat
1 49399U 21102E   24330.72770651  .00009619  00000-0  57043-3 0  9994
2 49399  97.4112  12.1670 0020651  64.1859 296.1498 15.11382846167365
KOSEN 1
1 49402U 21102H   24330.58424519  .00013990  00000-0  73447-3 0  9995
2 49402  97.4027  14.1681 0018501  46.7650 313.5124 15.15684331167554
HO-113
1 50466U 21131B   24330.68518690  .00001728  00000-0  55927-3 0  9993
2 50466  98.5221  55.0036 0004242  18.4312 341.7029 14.40282279153240
IRIS-A
1 51044U 22002BN  24330.14577294  .00069637  00000-0  14183-2 0  9991
2 51044  97.3636  37.2790 0004598 171.6704 188.4623 15.45999034159152
Planetum 1
1 52738U 22057G   24330.68570363  .01767153  24583-2  19981-2 0  9995
2 52738  97.5606 107.0700 0009951 298.1081  61.9195 16.09790193139726
Foresail-1
1 52766U 22057AL  24330.36962425  .00065679  00000-0  13239-2 0  9994
2 52766  97.5965 101.2847 0007790 275.0444  84.9915 15.46298952139225
SNUGLITE 2
1 52899U 22065F   24330.36866246  .00003787  00000-0  76257-3 0  9996
2 52899  98.1411 108.7491 0007733  16.8503 343.2954 14.62091732127805
IO-117
1 53106U 22080B   24323.52137211 -.00000003  00000-0  00000+0 0  9996
2 53106  70.1294 138.9057 0008387  72.7310 287.4267  6.42557804 55185
FO-118
1 54684U 22167C   24330.79290202  .00122610  00000-0  19508-2 0  9995
2 54684  97.6148 121.7875 0008977 287.6249  72.4023 15.52815357109150
SSS-2B
1 56184U 23054G   24330.62329706  .00359241  00000-0  18906-2 0  9995
2 56184  97.3388 232.8078 0004181  85.0380 275.1365 15.79727466 91207
SO-120
1 56992U 23084BU  24330.56903847  .00157319  00000-0  23785-2 0  9995
2 56992  97.5370  94.1480 0006545 189.3716 170.7416 15.54126643 80983
MRC-100
1 56993U 23084BV  24330.31580328  .00309977  00000-0  29501-2 0  9995
2 56993  97.5337  95.4330 0005098 215.2065 144.8859 15.65841107 81056
UmKA 1 (RS40S)
1 57172U 23091G   24330.71101455  .00012144  00000-0  72243-3 0  9996
2 57172  97.5904  21.3094 0014468 291.2033  68.7651 15.11309661 77853
CubeBel-2 (EU11S)
1 57175U 23091K   24330.72823720  .00016766  00000-0  94199-3 0  9994
2 57175  97.5908  21.5820 0012628 303.4746  56.5277 15.13312403 77873
VERONIKA
1 58261U 23174F   24330.70167740  .00056481  00000-0  16701-2 0  9994
2 58261  97.4432  45.1446 0009259  33.5139 326.6688 15.34684164 58358
KAFASAT
1 58317U 23174BP  24330.56110320  .00095031  00000-0  20916-2 0  9999
2 58317  97.4361  46.7268 0007402   0.3804 359.7448 15.43585885 58462
ENSO
1 58470U 23185J   24330.70663953  .00044848  00000-0  13381-2 0  9990
2 58470  97.4060  36.6322 0010730  69.0151 291.2239 15.34444675 54805
EIRSAT-1
1 58472U 23185L   24330.68750342  .00054298  00000-0  15121-2 0  9992
2 58472  97.4051  36.9279 0009884  68.5084 291.7213 15.36571259 54828
SONATE-2
1 59112U 24043Q   24330.34548257  .00028739  00000-0  11188-2 0  9991
2 59112  97.4942  93.3507 0013710  90.1950 270.0859 15.25869083 40314
MO-122
1 60209U 24125G   24330.12765517  .00030189  00000-0  11675-2 0  9990
2 60209  97.3004 179.0505 0024571 115.4223 244.9563 15.25879134 21894
GRBBeta
1 60237U 24128C   24330.43704966  .00008517  00000-0  70076-3 0  9990
2 60237  61.9951  41.8713 0028320   6.9646 353.1831 14.99462832 20757
Curium One
1 60242U 24128H   24330.40448017  .00014576  00000-0  11725-2 0  9992
2 60242  61.9854  42.1033 0028638 357.7830   2.3127 14.99908247 20754
ROBUSTA-3A
1 60243U 24128J   24330.42584091  .00014789  00000-0  11998-2 0  9996
2 60243  61.9922  42.3128 0026617 355.2832   4.8002 14.99615635 20753
CatSat
1 60246U 24125J   24330.16228978  .00021682  00000-0  86734-3 0  9997
2 60246  97.2809 179.9341 0050409  71.5384 289.1323 15.23904068 20003
CosmoGirlSat
1 60953U 98067WT  24330.72136799  .00656629  18089-3  20650-2 0  9997
2 60953  51.6206 225.3455 0010477 196.2623 163.8048 15.90704346 13833
Sakura
1 60954U 98067WU  24330.74236128  .01836324  26016-2  21314-2 0  9996
2 60954  51.6146 223.1925 0010624 206.4040 153.6433 16.08673815 13860
CySat-1
1 61501U 98067WZ  24330.15758465  .00241512  00000-0  21715-2 0  9999
2 61501  51.6323 235.1462 0011661 196.6141 163.4475 15.66852515  7484
DORA
1 61502U 98067XA  24330.72224611  .02613496  66271-2  44347-2 0  9990
2 61502  51.6111 229.1132 0015430 201.4162 158.6205 16.03355795  7604
AO-123
1 99130U 24099A   24330.49763889  .00064149  00000-0  26989-2 0 00005
2 99130 097.3813 194.9746 0017579 164.3269 001.1317 15.23282521000010
